Location: Larrial
(48.2758°N, 4.5331°W)
Time: 15:46:02
(UTC+00:00)

AAUSAT CUBESAT 2 - Visible Passes

Search period start: 28 November 2021 00:00
Search period end: 08 December 2021 00:00
Orbit: 570 x 588 km, 97.5° (Epoch: 28 November)

Date Brightness Start Highest point End Pass type
(mag) Time Alt. Az. Time Alt. Az. Time Alt. Az.
28 Nov ? 05:01:58 10° NNE 05:05:45 36° E 05:09:32 10° SSE visible
28 Nov ? 06:37:38 10° NNW 06:40:56 24° WNW 06:44:13 10° WSW visible
28 Nov ? 17:30:21 10° SW 17:33:36 22° W 17:36:51 10° NW visible
29 Nov ? 05:06:37 10° NNE 05:10:30 40° E 05:14:22 10° SSE visible
29 Nov ? 06:42:28 10° NNW 06:45:36 22° WNW 06:48:44 10° WSW visible
29 Nov ? 17:35:18 10° SW 17:38:21 20° W 17:41:26 10° NW visible
30 Nov ? 05:11:17 10° NNE 05:15:15 45° E 05:19:11 10° S visible
30 Nov ? 06:47:19 10° NNW 06:50:17 20° WNW 06:53:15 10° WSW visible
30 Nov ? 17:40:17 10° SW 17:43:07 18° W 17:45:59 10° NW visible
01 Dec ? 05:15:58 10° NNE 05:19:58 51° E 05:23:58 10° S visible
01 Dec ? 06:52:10 10° NNW 06:54:57 18° WNW 06:57:44 10° WSW visible
01 Dec ? 17:45:17 10° SW 17:47:53 16° W 17:50:29 10° NW visible
02 Dec ? 05:20:39 10° NNE 05:24:42 58° E 05:28:45 10° S visible
02 Dec ? 06:57:03 10° NNW 06:59:37 16° WNW 07:02:11 10° W visible
02 Dec ? 17:50:21 10° SW 17:52:39 15° W 17:54:57 10° NW visible
03 Dec ? 05:25:20 10° NNE 05:29:26 65° ESE 05:33:30 10° S visible
03 Dec ? 07:01:57 10° NNW 07:04:17 15° WNW 07:06:36 10° W visible
03 Dec ? 17:55:29 10° WSW 17:57:25 13° W 17:59:21 10° WNW visible
04 Dec ? 05:30:02 10° NNE 05:34:08 74° ESE 05:38:14 10° S visible
04 Dec ? 07:06:54 10° NNW 07:08:55 14° WNW 07:10:57 10° W visible
04 Dec ? 18:00:44 10° WSW 18:02:11 12° W 18:03:37 10° WNW visible
05 Dec ? 05:34:43 10° NNE 05:38:51 83° ESE 05:42:58 10° SSW visible
05 Dec ? 07:11:53 10° NW 07:13:34 12° WNW 07:15:15 10° W visible
05 Dec ? 18:06:22 10° W 18:06:57 10° W 18:07:31 10° WNW visible
06 Dec ? 05:39:26 10° NNE 05:43:33 88° W 05:47:40 10° SSW visible
06 Dec ? 07:17:00 10° NW 07:18:13 11° WNW 07:19:24 10° WNW visible
07 Dec ? 04:11:11 10° ENE 04:12:22 11° E 04:13:34 10° ESE visible
07 Dec ? 05:44:07 10° N 05:48:15 79° WNW 05:52:21 10° SSW visible
